Location: Borbetomagus
(49.6328°N, 8.3592°E)
Time: 00:23:39
(UTC+00:00)

ARIANE 5 R/B - Pass Details

Date: 19 May 2025
Orbit: 614 x 648 km, 98.0° (Epoch: 12 June)

Event Time Altitude Azimuth Distance (km) Brightness Sun altitude
Exits shadow 23:01:17 31° 233° (SW) 1,081 3.5 -20.2°
Maximum altitude 23:02:17 36° 263° (W) 992 3.5 -20.2°
Drops below altitude 10° 23:06:18 10° 330° (NNW) 2,002 6.1 -20.3°
Sets 23:08:40 0° 340° (NNW) 2,920 7.4 -20.3°
